Dewpoint
52 42 33 34 24 22 19 19 19 48 50 55 55 50 51 53 49 44 57 58 60 59 61 65 67 67 67 67 67 68 69 70 71 70 70 71 71 70 70 70 69 69 69 69 69 69 69 68 68
49 33 32 28 22 17 29 28 43 48 54 53 52 54 52 50 53 55 55 57 57 57 59 63 65 66 67 67 66 66 67 67 68 69 70 70 70 70 70 70 70 70 69 69 68 69 69 69 67
34 34 25 26 23 16 18 24 48 53 53 48 49 49 49 51 50 51 54 55 52 54 56 58 62 63 65 66 66 65 63 63 64 65 66 68 69 70 70 70 69 70 69 69 68 68 70 69 68
20 24 27 23 21 21 19 23 48 52 50 48 49 49 46 44 50 53 55 53 51 51 54 55 58 59 61 63 62 61 59 60 61 63 65 66 67 68 68 69 69 69 69 69 68 69 69 69 69
22 25 22 22 22 22 20 22 47 47 47 48 48 48 47 49 51 53 52 50 47 48 49 53 56 57 56 58 57 57 57 58 58 59 59 60 60 63 62 63 63 64 65 67 68 69 69 69 69
12 21 18 16 15 16 21 33 39 42 47 48 48 46 44 49 51 50 49 48 48 46 46 46 49 54 56 56 57 56 55 55 56 57 58 58 57 58 58 57 57 58 61 62 63 66 68 68 68
7 9 11 13 13 14 18 25 32 35 37 42 46 45 43 45 48 47 46 45 45 45 44 45 45 47 54 57 58 55 54 54 54 54 55 54 54 55 55 55 56 58 58 60 59 59 60 65 67
11 10 8 9 11 15 22 25 27 31 35 34 46 45 46 43 46 44 43 43 43 44 44 44 44 45 47 50 54 54 52 50 51 52 51 51 51 51 53 54 55 54 54 54 54 54 54 56 58
10 7 7 8 11 11 17 22 30 34 38 40 41 45 44 46 43 41 41 41 42 43 43 44 44 44 45 45 49 50 49 48 48 47 48 47 48 49 50 51 50 50 49 50 50 51 51 51 52
6 7 7 11 11 10 16 21 28 33 37 41 43 45 46 41 40 39 38 38 39 41 43 44 44 44 44 44 46 47 47 47 46 46 45 45 45 47 47 46 46 47 47 47 47 48 47 48 48
12 7 10 11 11 11 12 23 25 27 26 39 43 44 42 39 38 37 37 38 40 42 43 43 44 44 44 45 45 46 46 46 46 45 44 43 44 44 45 43 43 44 44 44 44 44 44 45 46
22 17 19 14 11 9 9 25 25 27 26 35 43 43 41 38 36 36 37 38 39 41 42 43 43 44 44 44 44 45 44 45 45 44 43 42 42 43 43 41 41 42 42 41 42 42 43 43 44
22 21 21 21 21 11 17 20 24 29 35 39 38 37 39 35 34 36 38 39 39 40 41 42 43 43 43 43 44 44 44 44 44 44 43 42 42 42 41 41 40 40 40 40 40 40 40 40 41
25 25 25 24 22 19 17 23 25 30 34 34 34 34 33 32 34 36 38 38 38 40 40 41 41 42 43 43 43 43 43 43 43 43 42 42 41 40 40 39 39 39 39 39 39 38 37 38 38
25 23 23 23 24 22 23 23 21 29 31 30 30 30 31 32 34 36 37 37 38 39 40 40 39 40 41 42 43 43 43 42 42 42 42 41 40 39 39 38 38 38 38 37 37 36 36 36 36
22 22 20 21 22 22 16 19 21 29 30 29 29 29 30 33 33 34 37 38 39 38 37 36 38 39 40 42 42 42 42 42 42 42 41 40 38 38 37 36 36 37 37 36 35 35 34 35 35
23 20 20 20 20 19 15 18 19 28 28 28 28 29 30 32 33 35 37 38 38 37 35 35 36 37 38 40 41 41 41 41 41 41 41 38 37 37 36 36 36 36 35 34 34 34 34 34 34
20 20 20 20 19 18 14 15 23 27 27 27 27 28 31 32 32 35 35 36 37 36 35 35 35 36 37 38 39 39 39 39 40 40 39 38 36 35 35 35 35 35 33 33 33 33 33 34 33
24 23 22 23 21 21 18 17 14 26 25 25 26 27 30 31 32 34 34 35 35 35 35 35 35 35 36 36 37 37 36 37 37 39 36 35 35 35 34 34 34 34 33 32 32 32 32 32 33
22 22 23 24 23 20 20 20 20 24 24 24 24 26 30 31 33 33 33 33 34 35 35 34 34 34 35 36 36 38 36 36 36 37 36 34 34 34 32 33 33 33 32 32 32 32 32 32 33
18 21 23 22 20 21 21 20 20 21 24 25 24 26 31 31 32 33 32 33 34 33 34 33 34 34 35 35 35 35 35 34 33 34 35 33 33 32 32 32 31 32 32 31 31 32 32 31 31
16 22 20 20 18 18 20 17 19 19 20 23 24 26 30 31 32 33 32 32 33 33 33 33 33 34 34 34 33 33 32 31 32 33 33 33 31 31 31 31 31 30 31 31 31 32 32 30 30
20 22 21 20 18 19 18 16 16 16 14 22 26 26 30 31 32 32 32 32 32 33 33 33 33 34 35 34 34 33 32 32 32 32 32 32 30 29 30 30 30 29 30 31 31 31 30 30 31
22 20 20 21 18 14 16 16 15 17 24 27 28 30 31 31 32 32 32 32 32 32 32 32 33 33 33 33 33 31 31 30 30 30 30 30 29 28 29 29 29 29 28 30 31 30 29 29 30
19 18 16 9 10 8 16 13 16 27 30 31 29 29 30 30 31 31 31 31 31 31 31 31 31 32 32 32 32 32 31 30 29 29 29 29 27 27 27 27 27 26 28 29 30 29 28 28 28
18 18 15 9 12 13 14 10 10 30 30 28 28 28 28 30 31 31 30 30 30 31 31 30 30 31 31 31 31 32 31 30 29 29 27 27 27 26 26 26 27 25 26 28 30 28 28 27 26
18 17 19 16 17 13 12 14 29 30 28 27 26 26 27 28 30 30 30 30 29 30 30 29 30 30 30 30 31 31 30 28 27 28 27 26 26 21 23 25 25 24 25 27 29 25 25 25 24
15 17 13 14 7 6 8 9 9 26 27 28 26 26 27 27 28 29 30 30 29 30 29 29 29 29 29 29 29 29 28 27 27 27 25 25 25 25 23 24 23 23 24 24 25 23 20 20 21
12 11 14 13 12 6 5 8 17 22 28 28 28 28 27 27 29 29 30 30 29 29 29 29 29 29 28 28 28 29 28 27 26 26 25 25 25 23 22 23 23 23 24 24 23 20 20 19 19
11 9 11 9 8 15 15 11 23 26 29 30 29 29 29 29 30 29 29 28 28 28 28 28 28 28 28 29 28 28 28 26 25 25 24 25 24 21 22 23 23 23 23 24 22 21 19 18 18
Wind_Speed
13 13 4 4 2 3 3 4 3 2 3 2 7 5 9 5 1 3 0 3 1 5 6 8 10 12 11 11 14 14 14 14 13 10 8 7 6 6 6 6 4 4 5 5 5 4 4 5 4
9 2 4 4 4 1 3 4 3 6 13 18 14 8 6 3 3 5 3 4 6 7 8 8 10 11 10 11 12 13 13 13 13 12 11 9 7 5 4 4 5 5 6 6 7 7 5 5 5
2 3 2 4 4 1 1 4 5 19 15 5 6 8 4 4 4 4 6 7 8 10 7 10 10 11 9 10 14 15 16 15 12 10 9 9 9 8 8 7 7 7 6 7 7 7 8 6 5
3 4 5 4 1 5 4 1 9 17 4 7 10 8 3 2 5 7 8 10 9 8 7 11 15 10 9 11 14 15 16 15 15 15 14 13 13 10 9 11 12 10 10 8 8 9 9 10 9
5 4 4 3 4 5 5 1 20 13 8 9 7 9 3 3 9 11 12 11 11 10 10 13 13 12 12 13 16 16 17 16 15 16 16 16 17 17 18 17 17 15 15 15 11 10 9 10 10
2 3 4 2 5 6 4 7 6 6 7 9 8 8 4 10 9 11 12 12 11 12 13 13 12 13 13 15 15 16 16 17 18 18 16 17 17 17 17 17 18 18 17 16 18 16 10 11 11
2 3 2 3 4 7 3 5 5 5 5 7 6 5 5 10 10 11 12 13 13 13 14 14 13 14 13 17 15 17 18 18 18 17 17 18 19 18 18 18 18 18 19 19 19 19 19 16 10
4 4 1 2 4 4 3 3 1 6 4 1 7 7 10 15 15 15 14 15 15 14 14 14 14 14 13 14 16 17 18 18 19 19 19 18 18 19 19 19 20 19 19 19 19 19 19 18 17
3 2 2 1 1 2 3 3 3 4 8 4 4 7 8 22 18 17 15 13 13 12 12 12 13 12 10 12 13 14 16 18 18 18 19 18 15 15 16 19 19 20 20 20 19 19 18 18 17
1 3 6 3 2 2 2 5 8 4 5 6 11 15 24 22 19 17 11 11 10 10 11 11 11 11 10 8 12 12 12 13 14 14 15 13 15 15 14 17 19 19 21 19 20 19 18 17 12
2 4 4 2 2 2 4 4 4 10 4 8 19 23 21 20 15 13 8 8 9 8 10 9 10 9 9 9 10 11 12 11 12 15 14 13 12 12 13 13 14 14 18 15 16 16 15 15 13
6 4 4 3 2 0 3 9 6 4 5 13 23 25 23 23 19 17 17 15 13 11 9 7 8 8 8 8 10 11 12 12 11 13 14 14 12 13 12 13 13 13 13 14 14 13 15 14 14
2 8 12 9 7 1 5 5 7 5 7 22 21 21 23 21 19 15 15 14 13 13 10 9 9 8 7 10 11 13 13 13 12 13 15 13 13 14 12 13 13 13 12 13 13 13 14 14 15
7 12 18 9 9 4 7 5 2 6 13 20 23 24 22 23 21 18 17 14 13 13 11 8 10 9 8 11 11 13 13 12 13 13 14 14 13 12 12 12 12 12 12 12 12 13 14 13 14
8 10 15 15 7 5 11 3 10 14 18 21 21 20 20 21 20 21 18 18 18 15 11 10 10 10 10 9 11 12 11 12 13 12 12 12 11 12 11 11 12 13 12 13 12 13 12 12 13
5 3 6 5 4 2 11 16 25 22 24 24 23 21 20 17 19 16 17 18 16 16 14 12 10 12 13 13 13 13 12 12 11 11 11 12 12 11 11 11 12 11 11 13 13 16 16 15 17
3 8 6 10 4 3 8 11 6 22 23 24 24 20 18 17 13 15 16 18 17 16 15 15 13 13 13 14 14 14 13 13 11 11 10 11 12 13 13 13 12 11 11 12 13 14 15 17 20
4 4 7 14 5 6 3 14 1 14 16 22 12 14 17 19 16 17 18 17 17 17 16 14 12 9 10 12 14 13 14 13 12 12 11 10 12 13 12 12 13 11 12 14 14 15 14 14 20
11 11 16 18 9 6 4 8 9 16 11 14 14 18 17 18 13 16 17 18 19 15 16 14 14 9 7 6 10 10 10 8 11 11 11 12 12 12 13 12 13 12 15 15 16 13 16 17 22
18 19 19 12 4 4 8 14 15 15 23 28 26 17 20 14 16 16 17 15 16 17 16 14 13 11 10 6 5 6 7 9 8 9 11 12 13 14 14 13 14 14 12 14 15 16 14 13 18
15 14 12 8 4 2 7 11 11 7 15 10 14 16 23 27 25 20 17 18 18 17 15 14 12 11 11 9 9 9 8 6 8 9 9 12 13 14 14 15 15 14 13 13 13 14 15 14 14
18 5 5 4 2 12 3 19 8 8 9 9 13 20 26 26 22 19 19 19 19 17 15 14 13 12 11 12 13 11 10 11 7 7 8 10 14 14 14 14 13 13 11 13 13 13 12 11 12
9 6 6 5 3 3 3 11 4 1 9 2 9 17 22 27 28 23 20 20 18 18 15 14 13 12 11 13 14 13 13 11 9 8 10 10 12 13 13 13 12 12 11 12 12 12 14 11 11
1 2 2 3 4 13 13 16 4 2 2 8 5 7 16 18 18 18 17 18 17 13 14 14 15 13 12 13 13 15 13 11 11 10 11 10 9 10 13 12 12 11 12 12 11 12 12 13 12
7 2 4 4 5 11 4 5 12 2 6 10 6 13 15 17 21 21 21 20 17 19 15 15 15 15 13 13 12 13 17 14 12 10 10 10 8 8 12 13 12 11 13 12 11 12 12 13 13
15 17 9 7 6 3 3 7 4 1 3 4 9 13 15 18 19 23 23 13 16 18 15 16 15 16 14 13 13 14 12 12 11 11 10 9 9 10 12 12 11 13 13 13 12 12 12 12 12
6 11 13 9 1 5 7 5 4 2 1 3 10 16 19 22 25 24 13 18 18 18 17 17 16 15 14 13 12 13 13 13 12 11 10 10 10 10 11 12 10 11 13 13 11 12 15 14 14
7 10 5 1 5 9 6 8 11 9 12 10 15 19 19 20 20 17 19 19 15 17 15 14 14 15 13 13 13 13 13 12 12 11 11 10 10 9 10 11 11 12 13 13 13 13 13 13 12
2 1 3 3 5 6 9 8 6 16 18 22 22 21 27 27 20 18 18 16 16 15 15 14 14 14 13 13 13 14 12 12 11 11 10 11 10 11 10 9 10 11 12 12 12 12 13 13 11
2 5 2 4 5 5 3 20 3 15 20 20 22 26 20 14 14 17 18 19 17 16 14 13 13 13 12 11 11 12 12 11 12 12 11 11 11 11 10 9 10 11 11 11 12 11 11 13 13
Wind_Direction
316 315 125 68 56 41 291 299 280 114 91 261 113 125 137 49 132 185 143 49 93 66 31 40 49 47 49 57 60 59 55 53 53 62 68 72 66 61 54 50 46 36 30 18 14 30 18 19 45
320 356 57 92 88 40 347 285 154 172 127 98 75 86 83 126 106 117 142 72 72 69 47 51 56 60 52 62 67 66 62 57 46 37 43 49 54 57 67 50 29 8 353 354 350 345 352 352 355
290 29 73 82 107 138 41 294 103 133 144 106 103 53 81 117 104 118 126 113 79 67 57 61 63 61 61 69 70 68 63 57 57 51 46 39 32 36 40 37 24 7 351 336 330 327 330 317 326
353 19 54 69 313 265 249 16 145 151 75 39 110 84 73 321 147 142 115 109 85 72 63 60 55 54 61 67 71 67 60 55 53 56 63 55 52 42 34 39 36 24 8 340 323 320 321 319 312
42 54 58 58 301 260 293 358 157 170 130 137 164 150 98 23 122 124 115 109 98 75 50 47 28 31 57 66 67 65 59 55 52 52 55 56 55 54 52 46 43 36 27 16 345 317 305 301 300
53 76 59 46 291 293 353 50 110 98 97 133 100 104 134 156 133 125 111 96 84 73 54 40 27 29 35 58 69 66 60 55 51 50 51 53 53 53 48 45 41 38 35 30 25 18 340 304 297
100 81 149 265 294 332 360 356 58 87 98 65 116 94 127 170 142 122 103 94 82 71 64 44 41 41 49 50 65 61 56 53 52 52 48 45 43 43 42 37 39 41 40 36 35 29 23 14 336
105 97 158 239 339 9 348 93 102 77 93 191 153 163 177 187 144 117 99 88 77 67 62 53 50 50 54 50 61 61 55 50 50 48 45 41 40 38 38 37 41 34 31 27 23 21 19 14 5
107 83 166 291 43 287 186 159 34 74 103 70 342 153 156 137 130 120 115 101 92 74 69 65 63 59 57 55 60 64 58 56 51 43 39 37 31 31 31 37 31 30 26 21 19 17 15 13 6
130 157 212 223 242 253 109 151 152 135 112 66 73 96 121 136 143 143 144 127 106 85 67 64 66 67 73 75 78 77 70 60 58 51 46 39 33 35 38 32 28 26 25 20 15 15 13 13 3
337 229 241 280 229 296 102 133 128 142 190 185 160 144 142 147 149 144 124 106 101 90 77 64 70 68 72 72 78 75 65 62 53 49 48 53 49 35 32 26 19 16 17 15 12 6 10 0 359
323 328 323 316 292 295 237 138 137 177 211 168 158 155 153 162 164 157 147 139 131 110 95 74 71 77 80 83 79 82 68 58 49 46 42 43 49 44 37 34 22 20 12 14 13 4 355 354 349
293 330 320 307 284 238 139 216 172 156 148 138 145 155 165 161 157 154 149 142 136 111 90 72 69 64 70 74 78 79 72 67 61 53 48 44 45 42 39 29 23 19 13 9 10 4 357 351 345
303 301 299 298 274 245 191 215 360 188 157 148 158 166 164 159 159 151 151 138 119 111 98 84 64 51 60 64 85 84 76 70 63 55 49 47 49 48 40 37 23 16 9 3 3 1 353 343 338
291 300 313 293 290 235 131 185 222 180 170 163 169 165 158 158 157 160 155 144 136 126 112 88 72 63 59 68 86 85 78 73 69 62 62 60 54 53 48 41 30 14 5 9 4 0 355 346 340
318 323 295 285 305 291 180 254 221 177 172 182 180 176 168 162 162 155 145 130 121 115 94 78 82 78 80 91 103 92 84 80 70 65 62 51 45 45 55 46 34 15 20 13 9 4 356 350 344
344 266 270 308 334 285 209 274 262 175 182 191 194 185 171 154 146 139 136 129 121 109 99 84 72 74 78 83 96 90 80 71 64 67 70 58 50 41 39 35 24 17 26 19 11 8 1 352 344
229 275 292 288 293 336 265 265 295 197 200 206 197 184 167 161 158 143 130 125 120 113 104 93 78 75 81 87 85 76 66 53 44 53 51 46 46 45 48 37 19 18 27 20 14 10 4 360 342
295 285 279 281 287 328 285 297 286 193 225 238 218 196 173 162 144 135 133 127 117 111 101 93 88 67 75 93 99 89 79 63 55 64 59 53 38 42 40 40 31 26 27 14 13 4 7 6 355
282 282 280 272 305 294 304 288 282 197 220 221 220 189 164 144 141 145 141 132 126 121 113 108 99 83 72 72 97 102 90 66 67 64 65 45 43 40 40 33 31 25 23 16 12 10 5 14 12
268 269 257 254 304 250 335 279 252 239 241 237 228 172 168 164 157 160 148 134 129 130 123 115 107 98 89 101 108 99 85 64 57 49 58 48 47 42 39 39 34 24 23 14 6 11 11 10 16
261 209 205 191 269 278 50 292 202 238 258 252 243 181 176 165 160 156 145 139 140 135 132 127 118 106 95 97 92 101 106 96 78 71 67 61 47 41 37 39 35 25 15 15 10 10 18 12 18
250 173 178 181 201 251 220 269 257 138 291 13 316 200 174 168 161 156 148 141 140 147 141 123 110 105 103 101 105 107 101 94 87 65 59 60 48 36 32 30 31 26 14 14 14 9 24 14 20
313 184 51 84 162 256 220 215 283 198 267 301 341 157 153 149 138 134 135 139 147 137 128 109 100 95 92 95 108 112 108 102 89 76 68 61 40 31 23 19 29 16 17 11 14 17 22 21 18
209 139 279 274 216 253 213 241 247 238 315 293 249 149 140 136 136 140 148 162 149 143 132 112 102 100 98 96 95 104 111 103 88 70 63 71 45 29 30 22 26 12 8 10 15 16 20 28 17
211 200 203 250 215 236 312 249 246 317 4 30 109 136 135 140 145 156 176 156 136 143 134 120 111 106 102 97 101 110 94 90 84 83 72 58 62 41 28 28 25 14 7 15 19 21 17 24 17
187 201 209 231 220 264 228 270 228 169 300 175 158 156 163 164 168 179 152 145 142 143 138 132 120 110 107 109 101 100 99 97 93 89 74 67 46 45 37 37 31 18 17 17 12 29 24 20 12
195 156 159 155 240 252 245 244 235 217 218 209 199 193 182 176 181 168 155 151 145 143 137 130 124 121 117 111 106 111 109 99 97 96 82 75 64 50 48 41 34 26 24 24 31 40 29 28 17
346 223 59 177 182 251 276 259 237 213 203 205 209 204 192 190 186 159 156 148 144 138 139 133 130 129 121 118 113 116 111 105 105 101 92 82 67 48 51 41 34 28 26 27 33 44 32 30 25
243 273 260 223 249 239 248 264 336 222 208 201 208 210 207 195 167 159 157 153 151 148 147 143 140 135 134 127 121 119 125 115 109 97 90 90 74 53 55 46 40 32 31 38 42 41 34 30 27